Wind_Speed
18 21 19 17 17 12 11 14 19 17 19 20 24 24 26 28 27 32 32 33 31 32 34 32 33 35 36 38 40 41 41 41 43 43 44 42 41 41 41 42 42 44 46 43 41 41 42 39 40
22 22 25 22 11 2 14 14 22 22 24 25 26 26 28 30 30 35 35 32 35 35 32 35 31 35 37 39 39 40 41 43 45 46 45 45 42 42 43 42 42 44 47 45 42 40 40 40 38
23 24 26 22 9 8 16 7 26 24 24 26 28 27 29 34 32 35 35 35 36 36 35 31 35 35 37 39 41 42 44 46 47 47 46 45 44 43 42 42 42 44 45 45 42 41 38 39 40
23 25 24 14 4 14 21 27 24 22 28 27 28 31 30 31 34 35 36 36 35 35 35 34 35 35 36 38 41 44 47 47 47 47 48 48 46 46 45 44 42 41 43 43 41 40 39 39 41
23 27 25 13 14 16 27 22 22 19 19 22 32 29 34 29 34 35 35 35 35 33 33 37 33 34 35 38 42 47 48 48 49 49 48 46 45 47 46 43 45 42 40 39 39 39 38 37 40
26 30 27 13 17 20 17 31 20 19 16 19 31 30 35 34 34 34 35 36 33 32 32 33 32 32 37 40 45 47 48 47 45 44 44 43 43 43 41 39 42 45 45 42 39 39 38 38 39
28 32 31 22 18 22 23 30 26 21 18 17 32 32 36 34 34 36 36 34 33 31 30 32 33 34 36 42 47 48 46 43 41 43 44 43 42 41 42 40 35 39 42 42 41 39 37 39 39
31 36 29 22 18 18 22 31 27 26 23 28 32 34 33 37 35 38 37 32 31 28 30 33 33 33 39 45 45 46 41 38 39 42 42 39 39 37 38 39 38 35 35 39 40 39 37 40 40
35 33 25 17 18 21 23 20 21 33 25 33 33 31 32 34 40 36 35 32 30 29 31 32 34 37 41 46 47 41 37 38 38 36 35 36 35 33 31 35 37 39 37 34 38 40 37 41 42
36 33 24 20 23 27 26 23 20 29 27 29 29 30 31 36 32 34 33 32 30 29 32 34 36 38 43 45 42 38 38 40 39 40 34 32 32 31 31 30 34 35 38 36 35 37 37 43 41
36 28 25 26 27 29 28 23 21 26 26 21 34 35 31 30 29 31 31 30 31 32 34 36 37 38 43 44 39 37 40 38 38 37 32 30 27 28 31 31 30 32 34 34 34 36 40 46 40
38 29 26 27 27 31 31 25 27 29 28 29 31 33 32 29 29 31 31 31 30 30 33 35 36 40 42 39 37 36 34 35 33 31 30 27 20 26 25 22 23 25 32 35 30 35 41 45 42
35 31 24 26 28 31 37 33 29 25 29 27 28 29 25 29 32 30 31 30 31 32 35 35 37 41 39 35 35 31 30 32 32 32 28 22 18 19 16 15 17 20 27 36 34 36 41 43 43
35 32 25 26 28 29 33 25 34 28 39 34 28 26 27 29 29 31 33 32 32 32 33 34 37 38 34 34 32 28 28 33 33 32 29 19 16 15 13 11 16 17 24 36 40 36 43 45 43
34 29 28 27 28 32 34 27 33 34 40 31 23 26 28 29 30 32 33 33 32 32 33 34 37 35 31 33 29 29 29 29 33 32 28 12 12 12 8 9 13 15 15 35 42 36 43 44 42
29 29 27 22 24 33 32 26 19 36 30 26 27 26 27 30 30 31 33 33 30 33 33 33 36 31 29 31 28 26 26 26 31 29 26 16 7 9 6 8 13 17 16 23 40 35 43 45 39
31 27 25 22 24 29 34 29 17 29 26 27 30 30 29 29 30 29 32 32 30 33 32 32 34 27 28 28 25 25 22 22 27 29 19 12 7 6 6 4 9 16 19 22 32 37 39 46 42
24 22 24 23 19 29 33 28 23 25 28 30 32 29 28 29 28 28 32 34 31 32 30 32 30 24 27 22 17 20 20 23 24 24 22 14 5 4 3 2 6 12 18 23 30 37 37 43 43
22 23 25 25 23 27 31 33 26 27 33 35 28 27 27 28 28 30 34 36 29 29 27 29 26 22 23 14 18 19 16 23 22 20 22 16 5 1 1 3 7 12 16 22 28 33 38 42 45
28 28 26 24 23 29 33 31 29 33 31 23 24 25 25 27 28 29 34 29 27 25 25 26 23 19 18 18 20 18 13 21 20 19 21 18 8 4 2 4 8 12 15 20 26 30 36 39 42
29 28 24 24 22 29 29 28 23 21 25 24 23 23 24 24 26 29 27 26 24 23 23 23 21 17 16 17 20 18 15 17 16 17 18 18 10 5 5 7 10 14 16 20 24 29 36 38 40
31 24 24 27 27 26 21 25 23 19 20 21 22 18 20 22 23 24 22 23 21 21 22 21 19 15 17 16 19 17 16 15 17 17 17 15 15 8 5 8 11 15 20 21 26 30 33 34 34
28 27 26 29 31 28 23 22 15 20 17 15 16 18 17 21 19 18 20 19 18 20 20 20 17 16 15 15 16 18 17 16 15 14 13 13 10 12 5 9 12 17 20 23 26 29 30 32 33
31 29 31 29 25 25 19 19 13 11 18 16 16 19 20 19 17 20 21 17 17 18 19 17 15 14 13 13 15 16 13 17 15 12 11 12 12 9 7 6 13 20 22 25 28 29 29 31 35
36 33 29 23 20 20 13 16 15 15 20 19 19 19 19 17 18 18 15 15 16 16 18 15 14 14 13 11 13 15 17 17 16 8 10 14 13 12 8 10 9 17 23 26 28 28 26 32 34
32 27 24 17 12 12 22 24 7 14 18 19 15 17 16 12 15 14 12 12 15 13 15 13 12 14 11 9 10 12 17 14 11 13 11 9 13 15 13 13 13 13 21 26 28 27 27 33 36
32 31 19 22 25 16 14 16 23 22 16 16 14 15 14 15 15 12 10 11 13 11 13 12 13 14 9 6 9 10 14 12 13 12 14 9 11 14 12 12 12 14 17 24 28 28 27 28 32
35 25 22 21 21 20 16 16 12 20 7 19 18 17 13 15 15 11 10 11 9 10 11 11 12 13 7 4 8 9 10 13 14 11 15 10 7 11 13 13 14 20 16 21 22 25 26 31 32
36 33 26 23 21 13 13 11 20 18 18 14 17 16 13 14 12 8 8 10 5 8 9 10 11 8 8 2 6 8 9 12 13 12 10 12 9 11 14 16 17 20 18 20 23 30 16 28 41
35 33 29 29 23 20 17 12 28 27 18 15 13 15 10 12 13 5 7 7 3 6 8 9 8 10 8 4 7 9 9 12 12 15 14 15 14 12 13 17 20 22 21 21 18 17 29 18 21
Wind_Direction
322 322 333 322 302 291 340 267 275 292 296 284 289 289 290 291 295 296 300 302 300 298 298 297 301 305 308 309 308 308 305 302 300 298 296 293 288 282 275 269 266 263 262 257 247 239 244 246 243
314 319 329 328 308 304 291 233 273 277 279 283 281 284 290 293 298 298 301 299 301 300 299 299 302 306 308 308 305 303 303 304 303 301 297 291 284 278 273 267 263 258 256 256 251 248 242 245 245
309 321 329 327 304 272 245 299 268 281 278 287 291 285 296 299 300 300 302 300 300 301 300 299 304 307 308 306 306 311 311 307 302 296 291 287 281 274 268 265 258 254 252 251 249 249 246 245 246
305 318 326 310 268 269 260 257 274 281 291 285 288 299 294 300 302 300 300 300 302 301 300 301 307 308 308 310 313 311 307 303 298 293 289 286 281 275 266 262 259 252 247 246 244 244 242 242 241
309 320 339 320 313 271 275 281 277 291 298 292 294 299 298 303 301 298 298 300 300 297 298 303 307 309 312 313 311 308 305 302 299 295 292 288 284 277 272 263 255 249 243 242 239 236 237 240 236
315 319 329 310 291 289 294 285 288 296 295 284 295 293 295 303 301 298 298 297 297 295 300 306 311 313 312 311 309 308 306 304 301 298 295 290 283 277 273 267 256 249 244 245 240 233 234 234 233
306 315 317 299 288 273 275 279 294 287 287 279 282 296 296 301 300 298 298 298 297 297 305 313 314 311 309 311 312 310 309 307 307 304 297 289 282 276 269 263 260 249 244 240 237 232 231 230 228
304 309 308 297 280 282 279 286 298 287 287 290 288 293 295 302 305 303 299 301 297 299 310 316 314 308 309 314 313 311 309 311 311 308 304 289 284 274 269 263 254 248 240 237 232 229 228 226 224
300 301 301 290 278 272 274 285 298 292 291 292 292 293 299 306 304 301 302 303 302 305 313 318 315 313 314 315 315 311 311 310 308 314 316 303 291 279 271 263 253 244 239 234 229 225 223 218 217
295 292 292 277 269 276 277 276 272 282 294 291 287 291 302 305 305 309 309 307 305 310 316 319 318 315 316 316 314 313 313 312 309 310 315 307 292 281 273 266 253 241 236 234 228 220 217 210 210
289 286 281 276 277 279 281 279 275 273 285 292 296 301 303 307 313 318 320 316 312 316 315 321 320 319 317 318 316 319 316 316 314 312 312 309 289 284 279 268 252 239 229 223 222 216 211 207 207
284 281 277 279 281 283 285 274 273 278 284 291 296 304 309 313 321 325 328 322 314 311 319 323 320 319 320 320 318 323 324 326 322 317 312 316 292 289 283 269 249 238 223 216 212 211 208 204 205
280 279 278 289 296 296 297 283 273 276 279 288 300 308 315 323 320 327 327 324 317 319 324 324 321 320 323 320 324 326 330 330 330 326 318 315 309 302 295 270 239 234 221 210 209 206 204 203 204
277 280 295 293 297 300 295 276 278 279 280 282 298 297 312 322 324 330 328 328 321 322 322 324 321 322 323 322 327 332 333 335 333 328 321 309 313 314 294 264 235 227 220 208 204 203 200 200 202
269 281 285 293 295 285 283 288 286 287 289 300 321 310 309 319 323 325 326 328 324 322 323 324 320 326 324 325 332 338 334 338 335 332 326 307 309 327 294 260 222 221 221 206 198 197 198 195 196
267 275 284 298 289 282 288 303 277 291 291 303 311 307 302 315 324 324 322 322 321 321 322 322 323 326 326 328 334 342 339 342 343 337 328 310 298 322 315 250 230 220 204 191 196 193 193 193 194
262 277 282 279 272 280 292 292 283 275 288 304 301 302 304 311 314 317 322 322 318 320 319 321 325 327 326 332 341 352 347 349 4 357 337 322 312 310 317 256 217 205 204 194 194 195 192 193 191
270 270 276 275 256 267 278 286 291 294 290 296 302 296 302 306 309 313 319 320 320 318 319 321 327 330 330 329 352 354 1 6 5 11 18 348 327 294 323 262 192 195 197 194 193 191 192 188 190
257 245 250 249 255 265 266 281 287 280 293 307 302 297 298 303 307 309 314 318 316 315 320 322 328 331 343 338 345 343 351 356 0 358 15 22 28 339 277 189 172 178 172 178 184 189 189 190 187
252 250 253 258 258 262 267 287 294 290 294 297 297 296 297 300 304 307 309 311 314 314 319 324 327 330 333 338 352 348 335 345 6 359 10 28 41 56 130 163 163 169 173 178 184 186 185 185 186
252 253 256 259 257 264 281 302 304 299 306 303 301 301 303 298 300 304 309 307 313 314 319 326 327 330 341 336 359 359 345 347 353 6 7 8 27 72 142 157 160 163 161 166 173 179 181 182 187
245 254 251 254 258 264 274 287 289 309 298 304 310 306 297 295 296 304 307 310 310 317 319 325 327 320 337 339 6 11 353 350 351 355 9 19 25 53 106 159 163 161 159 155 161 170 177 185 189
254 247 249 256 258 272 278 284 298 301 289 300 309 304 307 302 300 305 308 314 310 318 321 323 330 331 330 340 7 3 357 355 -0 1 7 19 35 33 81 151 165 164 164 166 167 170 177 183 185
244 243 246 250 267 272 283 276 292 281 266 288 298 293 309 298 294 300 300 310 311 318 322 322 340 332 327 347 11 18 16 3 5 9 29 34 45 44 58 123 169 172 166 167 170 172 175 177 172
236 242 247 257 257 278 290 271 284 248 261 289 294 286 301 298 295 303 305 305 316 316 321 326 338 338 331 346 20 28 16 11 21 56 52 46 48 39 81 90 119 172 170 170 173 175 170 168 170
245 248 249 243 259 279 259 293 286 274 270 295 290 289 292 287 296 308 311 308 323 314 323 328 346 339 336 338 24 24 21 13 41 54 42 45 47 65 86 89 90 115 161 171 177 176 175 171 175
242 243 248 228 215 231 254 278 298 295 324 320 291 287 286 290 296 308 301 318 322 313 325 333 348 339 342 337 27 33 23 35 38 45 40 44 56 80 87 98 106 107 134 162 177 180 182 176 174
236 247 234 244 243 239 253 277 262 280 265 279 297 292 292 293 301 296 295 324 314 317 328 339 348 344 353 3 33 42 30 34 39 52 46 55 74 83 96 107 100 128 128 141 151 169 173 164 170
235 228 243 238 233 241 241 260 251 241 254 274 282 302 287 296 314 283 301 326 307 328 342 352 9 4 357 14 29 37 26 39 48 61 44 66 68 110 104 107 115 118 118 134 140 156 144 176 168
242 244 246 248 241 230 219 243 257 271 275 284 276 312 315 292 305 278 315 317 321 334 358 4 27 34 13 39 34 46 35 53 66 67 60 53 71 116 124 117 109 115 115 133 124 133 149 140 157
Height
5898 5898 5898 5896 5897 5894 5895 5897 5889 5885 5882 5878 5876 5873 5870 5866 5866 5864 5860 5855 5853 5850 5846 5844 5839 5837 5833 5831 5827 5823 5820 5818 5815 5813 5811 5809 5807 5804 5804 5803 5804 5804 5805 5808 5811 5816 5817 5819 5822
5896 5895 5895 5892 5893 5894 5894 5888 5885 5880 5876 5872 5870 5868 5865 5863 5861 5858 5855 5852 5847 5844 5842 5838 5835 5831 5827 5825 5822 5819 5815 5811 5807 5805 5802 5801 5799 5797 5795 5795 5795 5796 5797 5798 5803 5806 5810 5811 5815
5893 5891 5891 5887 5889 5894 5892 5884 5879 5875 5872 5868 5865 5864 5862 5858 5857 5852 5850 5846 5842 5839 5836 5835 5828 5825 5822 5819 5816 5811 5807 5803 5800 5796 5793 5791 5789 5787 5785 5784 5785 5786 5788 5790 5793 5798 5802 5804 5808
5889 5888 5887 5885 5886 5885 5882 5879 5874 5872 5867 5864 5862 5859 5857 5855 5851 5848 5844 5841 5838 5833 5830 5829 5823 5819 5816 5813 5808 5804 5800 5796 5791 5787 5783 5780 5777 5774 5775 5774 5774 5776 5778 5780 5783 5789 5794 5797 5801
5886 5884 5883 5882 5885 5885 5877 5873 5869 5869 5866 5862 5856 5855 5850 5850 5846 5843 5839 5836 5833 5829 5825 5821 5818 5814 5810 5806 5802 5797 5792 5785 5780 5776 5772 5768 5764 5762 5761 5762 5762 5765 5768 5771 5775 5780 5785 5790 5793
5881 5880 5881 5883 5884 5878 5874 5868 5866 5864 5862 5860 5853 5850 5846 5844 5842 5839 5835 5833 5829 5825 5822 5817 5812 5807 5803 5800 5796 5789 5782 5776 5770 5766 5762 5759 5754 5751 5750 5750 5751 5752 5756 5761 5766 5771 5776 5782 5786
5879 5877 5877 5878 5879 5877 5870 5862 5863 5860 5859 5858 5848 5847 5842 5841 5838 5834 5831 5828 5824 5820 5818 5812 5806 5801 5800 5794 5787 5780 5773 5767 5761 5756 5751 5747 5743 5741 5739 5740 5741 5743 5745 5750 5755 5762 5768 5774 5779
5875 5872 5871 5871 5874 5872 5868 5859 5858 5854 5853 5850 5846 5843 5840 5834 5835 5830 5826 5823 5819 5816 5812 5806 5800 5797 5792 5785 5780 5772 5766 5759 5753 5746 5740 5735 5732 5730 5728 5729 5731 5734 5737 5740 5746 5753 5759 5765 5772
5869 5869 5867 5867 5868 5866 5863 5858 5855 5849 5848 5843 5841 5840 5837 5834 5830 5825 5821 5816 5812 5810 5806 5801 5795 5790 5785 5778 5771 5765 5758 5751 5744 5738 5730 5725 5721 5719 5718 5718 5720 5724 5728 5732 5736 5744 5751 5757 5765
5863 5862 5862 5861 5859 5857 5855 5854 5854 5849 5844 5839 5836 5834 5832 5830 5825 5821 5816 5811 5807 5805 5801 5795 5790 5784 5778 5771 5765 5757 5750 5743 5736 5729 5722 5716 5713 5710 5709 5709 5710 5713 5719 5724 5730 5736 5743 5750 5758
5855 5856 5856 5854 5852 5850 5848 5848 5847 5843 5840 5839 5831 5827 5827 5824 5821 5816 5811 5807 5803 5800 5795 5790 5784 5779 5772 5765 5758 5750 5743 5736 5728 5721 5716 5710 5706 5704 5701 5700 5701 5704 5710 5717 5723 5729 5736 5745 5753
5850 5849 5850 5848 5847 5845 5844 5842 5840 5837 5835 5830 5828 5826 5823 5821 5817 5812 5808 5804 5800 5796 5790 5784 5779 5773 5767 5760 5752 5744 5737 5729 5722 5715 5710 5704 5700 5697 5694 5692 5694 5697 5703 5711 5717 5723 5730 5739 5748
5845 5844 5844 5843 5842 5841 5839 5836 5834 5833 5828 5826 5824 5822 5820 5817 5813 5809 5803 5799 5795 5790 5785 5779 5774 5768 5762 5755 5747 5740 5732 5724 5717 5710 5705 5699 5695 5691 5688 5688 5689 5692 5697 5705 5712 5718 5726 5736 5744
5840 5838 5839 5838 5838 5836 5832 5832 5825 5829 5820 5822 5819 5817 5813 5812 5809 5804 5798 5794 5791 5785 5781 5776 5770 5765 5758 5751 5743 5735 5728 5721 5713 5707 5701 5696 5692 5688 5685 5684 5686 5688 5692 5699 5707 5715 5722 5731 5741
5836 5835 5833 5834 5833 5830 5827 5828 5825 5823 5817 5819 5817 5814 5810 5808 5804 5798 5794 5790 5786 5782 5777 5772 5767 5762 5754 5747 5740 5731 5725 5719 5712 5705 5697 5694 5689 5686 5684 5683 5684 5686 5688 5693 5703 5711 5719 5729 5737
5831 5829 5829 5830 5828 5823 5823 5824 5825 5816 5815 5816 5813 5810 5806 5804 5799 5795 5791 5787 5783 5778 5773 5768 5763 5757 5750 5744 5737 5729 5724 5718 5711 5704 5696 5690 5688 5686 5684 5683 5683 5685 5688 5692 5701 5709 5717 5726 5735
5823 5824 5825 5826 5824 5820 5817 5818 5820 5814 5813 5811 5809 5806 5802 5799 5796 5793 5788 5784 5779 5775 5770 5765 5760 5754 5748 5742 5735 5730 5724 5718 5711 5703 5695 5689 5687 5686 5685 5683 5682 5684 5688 5693 5700 5708 5715 5724 5733
5819 5821 5823 5823 5826 5815 5815 5813 5814 5812 5808 5808 5805 5801 5798 5796 5793 5789 5784 5780 5776 5772 5767 5762 5757 5752 5746 5740 5735 5730 5725 5718 5712 5706 5697 5690 5687 5687 5686 5684 5683 5684 5687 5692 5699 5707 5715 5723 5732
5816 5819 5821 5823 5821 5815 5813 5808 5809 5808 5804 5802 5799 5797 5794 5791 5789 5785 5780 5777 5773 5769 5764 5760 5755 5751 5745 5739 5734 5729 5725 5719 5713 5707 5700 5692 5689 5688 5687 5686 5685 5686 5688 5692 5698 5706 5714 5722 5731
5808 5809 5812 5812 5813 5810 5806 5804 5804 5802 5800 5798 5795 5792 5789 5787 5784 5781 5777 5774 5771 5766 5762 5758 5753 5750 5745 5740 5734 5728 5725 5721 5715 5710 5703 5696 5692 5689 5688 5687 5687 5688 5691 5695 5700 5707 5715 5724 5732
5801 5804 5807 5806 5808 5805 5800 5799 5798 5798 5795 5793 5790 5788 5785 5783 5780 5778 5775 5771 5768 5763 5760 5756 5752 5749 5745 5739 5734 5728 5724 5721 5717 5712 5706 5698 5694 5691 5690 5690 5690 5692 5694 5698 5703 5709 5717 5725 5732
5796 5801 5801 5799 5799 5799 5800 5796 5795 5793 5791 5787 5785 5783 5781 5778 5776 5775 5771 5768 5765 5761 5758 5754 5751 5748 5744 5739 5734 5729 5725 5721 5716 5712 5707 5701 5697 5693 5692 5692 5694 5695 5698 5702 5706 5712 5719 5726 5732
5794 5795 5795 5794 5792 5793 5793 5792 5792 5792 5790 5785 5782 5779 5777 5775 5773 5771 5768 5765 5762 5759 5756 5753 5750 5746 5743 5739 5735 5731 5727 5723 5718 5714 5709 5704 5700 5697 5695 5695 5696 5699 5701 5705 5711 5716 5721 5727 5734
5787 5787 5788 5788 5788 5786 5788 5789 5791 5792 5786 5782 5780 5777 5773 5771 5770 5768 5765 5763 5760 5757 5754 5752 5749 5745 5743 5739 5735 5732 5729 5725 5721 5715 5711 5707 5703 5701 5698 5697 5698 5701 5704 5709 5714 5719 5724 5729 5735
5778 5781 5783 5784 5784 5783 5786 5785 5785 5783 5779 5778 5777 5773 5771 5768 5767 5764 5761 5760 5758 5755 5753 5751 5747 5745 5742 5740 5737 5734 5731 5727 5722 5718 5715 5711 5707 5704 5701 5701 5701 5702 5707 5712 5717 5721 5725 5732 5738
5772 5776 5779 5780 5786 5789 5783 5782 5784 5776 5773 5774 5772 5770 5767 5767 5765 5762 5759 5758 5757 5754 5752 5749 5746 5745 5741 5740 5738 5735 5733 5729 5725 5722 5719 5715 5712 5707 5706 5707 5707 5707 5709 5713 5719 5725 5729 5735 5740
5768 5768 5776 5776 5778 5782 5783 5782 5776 5772 5771 5769 5767 5766 5765 5764 5762 5760 5758 5757 5755 5754 5752 5749 5746 5744 5741 5740 5739 5736 5735 5733 5730 5726 5722 5719 5716 5713 5712 5712 5712 5713 5714 5717 5722 5727 5733 5740 5747
5761 5765 5767 5769 5771 5775 5780 5779 5778 5771 5772 5768 5765 5763 5764 5762 5760 5758 5757 5755 5754 5754 5751 5749 5745 5743 5741 5741 5740 5738 5737 5735 5732 5729 5726 5722 5720 5718 5716 5717 5710 5719 5721 5723 5727 5732 5738 5744 5749
5755 5757 5761 5765 5768 5772 5776 5778 5769 5769 5767 5766 5763 5761 5761 5759 5757 5756 5756 5754 5754 5753 5751 5749 5746 5744 5742 5742 5742 5740 5739 5737 5735 5732 5729 5727 5725 5723 5722 5722 5725 5725 5726 5730 5734 5739 5743 5746 5750
5748 5751 5756 5756 5761 5764 5771 5776 5764 5764 5763 5762 5763 5759 5758 5756 5755 5755 5755 5754 5754 5754 5752 5749 5747 5745 5743 5743 5742 5741 5740 5740 5738 5736 5734 5731 5730 5728 5728 5728 5730 5732 5734 5737 5742 5746 5749 5754 5756